Temp
10 10 10 10 10 9 9 10 11 10 10 10 9 9 8 8 7 7 6 6 6 6 6 5 5 5 4 4 4 4 4 4 4 4 3 4 6 6 7 7 7 7 7 6 6 6 6 6 6 7 7 6
9 9 10 10 10 9 9 10 11 10 10 9 9 9 8 8 8 7 7 6 6 6 6 6 5 5 4 4 4 4 4 3 3 3 4 5 6 6 6 6 6 6 6 6 6 6 6 6 6 6 7 7
10 10 10 10 10 9 9 9 10 10 9 9 9 9 9 8 8 8 7 6 6 7 7 7 6 5 4 4 3 3 3 3 4 4 4 6 6 6 6 6 6 6 6 6 6 6 6 6 6 6 6 6
10 10 10 11 10 9 9 9 9 9 9 9 9 9 9 8 8 8 7 6 6 7 7 7 7 6 5 4 3 3 3 3 4 4 5 6 6 6 6 6 6 6 6 6 6 6 6 6 6 5 6 6
9 10 10 10 9 9 9 9 9 9 9 9 9 9 8 8 8 8 7 7 7 7 7 7 7 6 5 4 4 3 3 3 3 4 5 6 6 6 6 5 6 6 6 6 6 6 6 6 6 5 5 5
9 9 9 9 9 9 9 9 9 9 9 9 9 9 8 8 8 8 7 7 7 7 7 6 6 5 5 4 4 3 3 3 3 4 6 6 6 5 5 5 5 5 5 5 5 5 5 5 5 5 5 5
9 8 8 8 8 8 9 9 8 8 9 9 9 8 8 8 8 7 7 7 7 6 6 6 6 5 4 4 4 4 4 4 4 5 6 5 5 5 5 5 5 5 5 5 5 5 5 5 5 5 5 5
8 8 8 8 8 8 8 8 8 8 8 9 8 8 8 8 7 7 7 7 6 6 6 6 6 5 5 4 5 5 5 5 5 5 5 5 5 5 5 5 5 5 5 5 5 5 5 5 5 5 5 4
8 8 8 8 8 8 8 8 8 8 8 8 8 8 7 7 7 7 7 6 6 6 6 6 5 5 4 5 5 5 5 5 5 5 5 5 5 5 5 5 5 5 5 5 5 5 5 5 5 5 5 5
8 8 7 7 8 8 8 8 8 8 8 8 8 8 7 7 7 6 6 6 6 6 6 5 5 4 4 5 5 4 4 4 4 5 5 5 5 5 5 5 5 5 5 5 5 5 5 5 5 5 5 5
8 8 8 7 7 7 8 8 8 8 8 8 8 8 7 7 7 6 6 6 6 6 5 5 5 4 4 5 4 4 4 4 4 4 5 5 5 5 5 5 5 5 5 5 5 5 5 5 5 5 5 5
8 8 9 8 8 8 8 8 8 8 8 8 8 7 7 7 7 6 6 6 6 5 5 5 5 4 4 4 4 4 4 4 4 4 4 4 4 4 5 5 5 5 5 5 5 5 5 5 5 5 5 5
8 8 8 8 8 8 8 8 8 8 8 8 7 7 7 7 6 6 6 6 5 5 5 5 5 4 4 4 4 4 4 4 4 4 4 4 4 4 5 5 5 5 5 5 5 5 5 5 5 5 5 5
9 8 8 8 8 8 8 8 8 8 8 8 7 7 7 7 6 6 6 6 5 5 5 5 5 4 4 4 4 4 4 4 4 4 4 4 4 4 4 4 5 5 5 5 5 5 5 5 5 5 5 5
8 8 8 8 8 8 8 8 8 8 8 7 7 7 7 7 6 6 6 6 5 5 5 5 5 4 4 4 4 4 4 4 4 4 4 4 4 4 4 4 4 4 5 5 5 5 5 5 5 5 5 5
8 8 8 8 8 8 8 8 8 8 7 7 7 7 7 6 6 6 6 6 5 5 5 5 4 4 5 4 4 4 4 4 4 4 4 4 4 4 4 4 4 4 4 5 5 5 5 5 5 5 5 5
8 8 8 8 8 8 8 8 8 8 8 7 7 7 7 6 6 6 6 6 5 5 5 5 4 4 5 4 4 4 4 4 4 4 4 4 4 4 4 4 4 4 4 4 4 4 4 4 4 5 5 5
8 8 9 8 8 8 8 8 8 8 8 7 7 7 7 7 6 6 6 6 5 5 5 5 4 4 4 4 4 4 4 4 3 4 4 4 4 4 4 4 4 4 4 4 4 4 4 4 4 4 4 4
8 8 8 8 8 8 8 8 8 8 8 8 8 7 7 7 6 6 6 6 5 5 5 5 4 4 4 4 4 4 4 3 3 3 3 3 3 3 3 4 4 3 4 4 4 4 4 4 4 4 4 4
8 8 8 7 8 7 7 7 7 7 8 8 7 7 7 7 6 6 6 6 5 5 5 5 4 4 4 4 4 4 3 3 3 3 3 3 3 3 3 3 3 3 3 4 4 4 3 4 4 3 4 4
7 8 8 7 7 7 7 7 7 7 7 7 7 6 7 7 7 6 6 5 5 5 5 5 5 4 4 4 4 3 3 3 3 3 3 3 3 3 3 3 3 3 3 3 3 3 3 3 3 3 3 3
6 7 7 7 7 7 7 6 7 7 6 7 6 6 7 7 7 6 6 5 5 5 4 5 5 4 4 4 3 3 3 3 3 3 3 3 3 2 2 2 2 2 3 3 3 3 3 3 3 3 3 3
6 6 6 7 7 7 7 6 6 6 6 6 6 6 6 7 6 6 6 5 5 5 4 4 4 4 4 4 3 3 3 3 2 3 2 2 2 2 2 2 2 2 2 3 2 2 2 3 2 2 3 3
6 6 6 7 7 7 6 6 6 6 6 6 6 6 6 6 6 6 6 5 5 5 4 4 4 4 5 4 3 3 3 3 3 3 3 2 2 2 2 2 2 2 2 2 2 2 2 2 2 2 2 2
6 6 6 7 7 7 7 6 6 6 6 6 6 6 6 6 6 6 6 5 5 5 4 4 4 4 4 4 4 3 3 3 3 3 2 2 2 2 2 2 2 2 2 2 1 2 2 2 2 2 2 2
5 6 6 6 6 6 6 6 6 6 6 6 6 5 5 5 5 5 6 5 5 5 5 4 4 4 4 4 4 4 3 3 3 3 2 2 2 2 1 1 1 1 1 1 1 1 1 1 1 1 2 1
5 5 5 5 5 5 6 6 6 6 6 6 5 5 5 5 5 4 5 5 4 5 5 4 4 4 4 4 4 4 4 3 3 3 3 2 2 2 1 1 1 1 1 1 1 0 0 1 1 1 1 1
4 5 5 5 5 5 5 5 5 6 5 5 5 5 5 4 5 4 5 5 4 4 5 4 4 4 3 3 3 3 3 4 4 4 4 3 2 2 1 1 1 1 1 0 0 -0 -0 0 1 1 1 2
3 4 4 4 4 5 5 5 5 5 5 5 5 4 5 5 5 5 4 4 4 4 4 4 4 4 3 3 3 3 3 3 3 4 4 3 3 2 2 1 1 1 1 1 0 0 0 1 1 2 2 2
2 3 3 3 4 4 4 4 4 4 5 5 5 5 5 5 5 5 4 4 4 4 4 4 4 4 3 3 3 2 2 3 3 3 3 3 3 2 2 1 1 1 1 1 0 0 1 1 1 2 2 1
2 2 2 3 3 3 4 4 4 4 5 5 5 5 5 5 5 5 5 4 4 4 3 3 3 3 3 3 3 2 2 2 2 3 3 3 3 3 2 2 1 1 1 1 0 0 0 0 1 1 2 2
Height
1515 1515 1516 1519 1521 1523 1524 1524 1526 1526 1527 1529 1529 1530 1531 1532 1533 1534 1535 1535 1536 1537 1537 1539 1540 1541 1540 1541 1542 1542 1543 1544 1545 1546 1546 1545 1545 1546 1547 1548 1549 1550 1550 1551 1552 1553 1553 1554 1554 1555 1555 1556
1514 1514 1515 1518 1520 1522 1523 1524 1525 1526 1527 1528 1529 1530 1531 1532 1533 1534 1535 1536 1536 1536 1537 1538 1540 1540 1541 1541 1542 1543 1543 1543 1544 1545 1545 1545 1546 1546 1547 1548 1549 1550 1550 1551 1552 1553 1554 1554 1555 1555 1555 1556
1512 1514 1515 1517 1519 1520 1522 1523 1524 1525 1526 1527 1528 1529 1530 1531 1532 1534 1535 1535 1536 1537 1537 1538 1539 1540 1541 1542 1542 1543 1543 1543 1543 1544 1544 1545 1546 1546 1547 1548 1549 1549 1550 1551 1552 1553 1554 1554 1555 1555 1556 1556
1511 1512 1514 1516 1518 1519 1521 1522 1523 1524 1525 1526 1527 1528 1530 1531 1532 1533 1534 1535 1535 1536 1537 1538 1540 1541 1542 1542 1543 1543 1543 1543 1543 1544 1544 1545 1546 1547 1547 1548 1549 1549 1550 1551 1552 1553 1553 1554 1554 1555 1556 1556
1509 1510 1512 1514 1516 1518 1519 1520 1522 1523 1524 1525 1526 1528 1529 1530 1531 1533 1534 1535 1535 1536 1537 1538 1540 1541 1542 1542 1542 1543 1543 1543 1543 1543 1544 1545 1546 1546 1547 1548 1549 1549 1550 1551 1551 1552 1553 1554 1554 1554 1555 1556
1508 1508 1510 1512 1514 1516 1517 1519 1520 1522 1523 1523 1525 1527 1528 1530 1531 1532 1533 1534 1535 1536 1537 1538 1539 1540 1541 1541 1542 1542 1542 1543 1543 1543 1544 1545 1545 1546 1547 1547 1548 1549 1549 1550 1551 1552 1552 1553 1553 1554 1554 1555
1505 1507 1508 1510 1512 1514 1515 1517 1519 1521 1521 1522 1524 1526 1528 1529 1531 1532 1533 1534 1535 1536 1537 1538 1539 1540 1540 1541 1541 1542 1542 1542 1542 1543 1544 1544 1545 1545 1546 1547 1547 1548 1549 1550 1550 1551 1551 1552 1553 1553 1554 1555
1504 1505 1506 1508 1511 1512 1513 1515 1517 1518 1520 1521 1523 1525 1527 1528 1530 1531 1532 1533 1534 1535 1536 1537 1539 1540 1540 1540 1540 1541 1541 1542 1542 1543 1543 1544 1544 1545 1545 1546 1547 1547 1548 1549 1549 1550 1551 1551 1552 1553 1553 1554
1504 1504 1505 1507 1509 1510 1511 1512 1514 1516 1518 1520 1522 1524 1526 1528 1529 1530 1531 1532 1533 1534 1535 1536 1538 1539 1539 1539 1539 1540 1541 1541 1542 1542 1543 1543 1543 1544 1544 1545 1546 1546 1547 1548 1548 1549 1550 1551 1551 1552 1552 1553
1503 1503 1505 1506 1506 1507 1508 1511 1512 1514 1516 1519 1521 1523 1525 1526 1528 1529 1530 1531 1532 1533 1534 1535 1536 1537 1537 1538 1538 1539 1540 1541 1541 1542 1542 1542 1543 1543 1543 1544 1545 1545 1546 1547 1547 1548 1549 1550 1550 1551 1552 1552
1501 1503 1505 1506 1507 1506 1507 1510 1512 1513 1515 1517 1519 1521 1523 1525 1526 1528 1529 1530 1531 1532 1533 1534 1535 1536 1536 1537 1537 1538 1539 1540 1540 1541 1541 1542 1542 1542 1543 1543 1544 1545 1545 1546 1547 1548 1548 1549 1549 1550 1551 1552
1500 1502 1503 1506 1507 1507 1508 1510 1510 1510 1512 1515 1517 1520 1522 1523 1525 1526 1528 1529 1530 1531 1532 1533 1534 1534 1535 1536 1536 1537 1537 1538 1539 1540 1540 1541 1541 1541 1542 1542 1543 1544 1545 1545 1546 1547 1548 1548 1549 1549 1550 1551
1498 1499 1501 1503 1504 1505 1507 1508 1508 1508 1510 1513 1516 1518 1519 1521 1523 1525 1526 1528 1529 1530 1531 1531 1532 1533 1534 1534 1535 1535 1536 1537 1538 1538 1539 1540 1540 1541 1541 1541 1542 1543 1544 1544 1545 1546 1547 1547 1548 1549 1549 1550
1495 1496 1498 1499 1501 1503 1505 1506 1507 1508 1509 1511 1514 1516 1517 1519 1521 1523 1524 1526 1527 1529 1529 1530 1531 1531 1532 1533 1533 1534 1535 1536 1537 1537 1538 1539 1539 1540 1540 1541 1541 1542 1543 1543 1544 1545 1546 1546 1547 1548 1548 1549
1492 1494 1495 1496 1498 1500 1502 1503 1505 1507 1507 1509 1511 1513 1515 1517 1519 1521 1522 1524 1525 1527 1528 1528 1529 1530 1530 1531 1532 1532 1533 1534 1535 1536 1537 1537 1538 1538 1539 1540 1540 1541 1542 1542 1543 1544 1545 1546 1546 1547 1548 1548
1489 1491 1493 1494 1496 1498 1499 1501 1502 1504 1505 1506 1508 1510 1513 1515 1517 1518 1520 1522 1523 1524 1525 1527 1527 1528 1528 1529 1530 1531 1531 1532 1533 1534 1535 1536 1537 1537 1538 1538 1539 1540 1541 1541 1542 1543 1544 1545 1545 1546 1547 1547
1486 1488 1489 1491 1493 1495 1496 1498 1499 1500 1502 1504 1506 1508 1510 1512 1514 1516 1517 1519 1521 1522 1523 1525 1525 1526 1527 1527 1528 1529 1530 1531 1532 1532 1533 1534 1535 1536 1537 1537 1538 1539 1539 1540 1541 1542 1543 1544 1544 1545 1546 1546
1483 1484 1485 1487 1489 1491 1493 1494 1495 1496 1498 1500 1502 1505 1507 1509 1511 1513 1515 1517 1519 1520 1521 1522 1523 1524 1525 1525 1526 1527 1528 1529 1530 1531 1532 1533 1534 1534 1535 1536 1537 1537 1538 1539 1540 1541 1541 1542 1543 1544 1545 1545
1481 1482 1482 1482 1484 1486 1487 1488 1490 1490 1493 1496 1498 1501 1504 1506 1508 1510 1512 1514 1516 1517 1519 1520 1521 1522 1523 1523 1524 1525 1526 1527 1528 1528 1530 1531 1532 1532 1533 1534 1535 1536 1536 1537 1538 1539 1540 1541 1542 1543 1543 1544
1479 1480 1480 1480 1482 1483 1484 1487 1487 1488 1491 1493 1494 1497 1499 1501 1504 1507 1509 1511 1513 1514 1516 1518 1519 1520 1521 1522 1523 1523 1524 1525 1526 1526 1528 1529 1530 1530 1531 1532 1533 1534 1535 1536 1537 1538 1539 1539 1540 1541 1542 1543
1475 1478 1479 1480 1482 1483 1484 1487 1488 1488 1491 1492 1492 1495 1496 1497 1500 1502 1505 1509 1510 1512 1513 1515 1516 1517 1518 1520 1521 1521 1522 1523 1524 1525 1526 1527 1528 1529 1529 1530 1531 1533 1533 1534 1535 1536 1537 1538 1539 1539 1540 1541
1473 1476 1478 1479 1480 1481 1481 1484 1486 1487 1487 1488 1490 1492 1494 1494 1496 1498 1501 1504 1507 1509 1510 1511 1513 1514 1516 1517 1518 1519 1520 1521 1522 1523 1524 1525 1526 1527 1528 1529 1530 1531 1532 1533 1534 1535 1535 1536 1537 1538 1538 1539
1473 1474 1477 1477 1477 1478 1478 1480 1483 1484 1483 1485 1487 1488 1490 1491 1492 1495 1498 1500 1503 1506 1508 1508 1509 1510 1512 1514 1515 1517 1518 1519 1520 1521 1522 1523 1524 1525 1526 1528 1529 1529 1530 1531 1532 1533 1534 1535 1535 1536 1536 1537
1472 1473 1474 1475 1475 1475 1476 1477 1479 1480 1481 1482 1483 1484 1487 1488 1490 1492 1495 1497 1499 1501 1504 1506 1506 1506 1508 1511 1512 1514 1515 1516 1518 1519 1520 1521 1522 1523 1524 1525 1526 1527 1528 1529 1530 1531 1532 1533 1533 1534 1534 1535
1470 1471 1472 1472 1472 1472 1474 1475 1475 1476 1477 1478 1479 1482 1484 1485 1487 1489 1491 1493 1494 1497 1499 1502 1503 1503 1505 1506 1508 1511 1512 1514 1515 1517 1518 1519 1520 1521 1522 1523 1523 1525 1526 1527 1528 1529 1530 1530 1531 1532 1533 1533
1468 1469 1469 1470 1470 1472 1472 1472 1473 1473 1474 1475 1477 1478 1479 1481 1483 1486 1488 1489 1490 1492 1495 1497 1498 1500 1501 1502 1504 1507 1509 1510 1512 1513 1515 1515 1517 1518 1519 1520 1521 1522 1524 1524 1525 1527 1528 1528 1529 1529 1530 1531
1466 1466 1467 1468 1469 1470 1471 1470 1471 1473 1472 1472 1474 1475 1476 1479 1481 1483 1484 1485 1486 1488 1491 1493 1494 1496 1499 1499 1500 1502 1504 1506 1507 1509 1511 1512 1514 1515 1516 1517 1517 1519 1521 1522 1524 1525 1526 1526 1526 1527 1526 1527
1465 1465 1465 1466 1466 1466 1467 1467 1469 1470 1469 1469 1471 1472 1474 1477 1478 1480 1481 1481 1482 1485 1487 1489 1491 1493 1496 1497 1498 1498 1499 1501 1502 1504 1506 1508 1510 1511 1513 1513 1514 1516 1518 1520 1521 1522 1523 1524 1525 1524 1523 1524
1463 1463 1463 1463 1462 1462 1462 1462 1464 1465 1465 1467 1468 1469 1471 1473 1475 1477 1478 1478 1479 1482 1483 1485 1487 1489 1491 1493 1495 1495 1495 1497 1498 1500 1501 1504 1506 1507 1509 1510 1511 1513 1515 1516 1518 1519 1521 1522 1522 1521 1521 1522
1459 1460 1460 1461 1461 1459 1458 1458 1459 1460 1462 1464 1465 1466 1468 1469 1471 1472 1473 1474 1476 1478 1479 1480 1482 1485 1487 1488 1490 1492 1492 1493 1495 1496 1497 1499 1501 1503 1505 1507 1507 1508 1511 1513 1514 1515 1517 1518 1518 1519 1520 1520
1456 1457 1457 1459 1459 1459 1458 1457 1457 1459 1460 1462 1463 1464 1464 1465 1466 1467 1468 1470 1471 1473 1475 1476 1478 1480 1482 1483 1486 1488 1489 1489 1490 1492 1494 1495 1497 1498 1501 1503 1503 1504 1506 1509 1510 1511 1513 1515 1515 1517 1518 1518
Wind_Speed
27 26 23 21 21 20 18 14 11 10 10 7 7 7 7 6 5 6 8 8 8 7 8 9 9 9 9 9 10 9 9 9 9 9 8 9 13 14 13 13 14 14 13 13 13 13 12 11 9 9 13 14
29 26 23 23 22 20 19 15 13 13 11 9 8 7 6 4 3 4 6 7 7 6 6 7 7 8 9 9 9 8 8 8 8 7 8 12 16 15 14 14 14 14 14 13 13 12 12 11 10 10 12 13
28 23 20 21 22 22 20 17 15 14 11 10 8 7 5 4 3 4 5 5 4 3 3 2 4 6 8 8 8 8 8 7 7 7 9 14 17 15 14 14 14 14 14 14 13 12 12 11 12 11 11 12
27 24 22 23 24 24 20 16 15 14 12 10 8 7 5 5 5 4 5 5 5 4 2 3 3 4 7 8 8 8 8 7 8 8 10 14 15 14 13 12 13 13 13 13 13 13 12 12 13 13 11 12
27 27 27 27 27 25 21 18 17 15 13 10 8 8 7 7 6 5 6 6 7 6 4 5 4 5 7 8 8 8 8 8 8 8 11 13 13 13 13 13 13 12 13 13 13 13 13 13 14 14 14 14
29 30 30 29 28 25 22 20 19 17 14 11 9 9 9 9 7 7 7 6 7 6 7 7 6 7 8 8 8 8 9 10 9 10 11 13 13 12 12 13 13 13 13 13 13 13 14 14 14 14 15 16
32 32 31 30 28 26 23 22 21 18 14 11 10 11 11 10 9 8 6 5 7 8 9 9 8 9 9 9 9 8 10 11 10 10 12 12 12 12 12 12 13 14 14 14 14 14 15 15 15 16 16 16
34 34 33 31 30 27 25 23 22 20 15 11 12 13 13 13 11 9 8 7 8 9 10 10 10 10 12 13 11 8 8 10 10 11 12 12 12 12 12 13 13 14 14 15 15 15 16 15 15 16 18 18
34 34 34 33 31 29 27 27 25 22 16 13 14 15 15 14 13 11 9 9 10 11 12 12 12 12 14 15 13 10 9 10 11 12 13 13 12 12 13 13 14 14 14 15 15 16 16 16 16 16 18 18
35 35 34 35 35 33 31 29 27 23 17 15 16 16 16 15 14 12 10 10 11 13 14 14 13 14 15 15 14 13 12 12 13 13 13 13 13 13 14 14 14 15 15 16 16 16 16 17 17 17 18 18
36 35 34 36 36 34 32 29 26 22 18 17 17 18 18 18 16 13 11 12 12 13 14 14 15 15 16 15 14 15 14 14 14 14 14 14 14 14 14 14 15 15 15 16 16 17 17 17 17 18 18 18
36 34 34 35 34 32 30 28 25 22 19 18 18 20 21 20 18 14 13 14 13 13 14 15 16 16 16 15 16 17 16 15 15 15 15 15 14 14 15 15 15 15 16 16 16 17 17 18 17 18 18 18
36 36 35 36 35 33 31 30 28 24 21 19 20 21 22 21 19 16 16 16 15 14 15 16 16 17 17 17 18 19 18 17 17 17 16 16 15 15 15 15 16 16 17 17 17 17 17 18 17 18 18 18
38 38 38 38 37 35 33 32 30 25 22 21 21 22 23 23 21 18 17 18 17 16 16 17 17 18 18 18 19 19 19 18 18 18 18 17 16 16 16 16 17 17 17 17 18 18 18 18 18 18 17 17
39 40 41 40 39 36 35 35 32 27 26 24 23 24 24 24 22 19 19 20 19 17 17 17 17 18 18 18 18 19 20 20 19 20 19 18 17 17 17 17 17 17 18 18 18 19 18 18 18 18 18 18
41 42 42 42 40 39 38 37 34 31 30 26 25 26 25 25 24 21 21 22 21 20 18 18 18 19 19 18 18 20 21 21 20 20 20 19 18 18 18 18 18 18 18 18 19 19 19 19 19 19 19 19
42 42 43 43 42 42 40 39 37 36 34 29 26 27 27 27 25 23 23 24 23 22 20 19 20 19 18 18 18 20 21 21 21 21 21 20 19 19 18 18 18 18 19 19 19 19 19 19 19 20 20 20
44 45 45 45 45 44 43 42 41 40 38 33 29 29 29 29 28 25 24 25 25 24 22 21 21 19 19 19 19 19 20 21 22 22 22 21 20 20 19 19 19 19 19 19 19 19 19 19 19 20 20 20
46 47 47 47 47 47 47 46 44 43 40 36 34 31 29 30 31 28 26 26 27 26 24 23 22 20 20 21 20 19 20 21 23 23 22 21 21 20 20 20 20 19 20 20 20 20 19 19 20 20 20 20
47 48 49 49 48 49 49 48 46 45 41 39 38 34 31 31 32 31 28 27 28 28 26 24 22 21 21 21 20 19 20 21 22 23 22 21 21 21 21 21 21 20 21 21 20 20 20 20 20 20 21 20
44 46 49 49 48 49 49 47 47 46 43 42 41 37 34 33 33 33 31 29 30 30 27 24 23 23 23 21 21 20 20 20 21 21 21 21 21 21 21 21 21 20 21 21 21 21 21 21 20 20 21 21
40 41 43 48 48 49 50 49 48 47 47 46 44 41 38 36 34 33 32 31 32 32 29 26 24 25 24 22 22 21 20 19 20 20 20 21 21 21 21 21 20 20 21 22 22 21 21 20 20 21 22 22
37 36 39 45 47 49 50 50 50 50 50 48 47 45 43 40 36 34 32 32 33 34 32 30 28 27 25 24 24 22 21 20 20 19 19 20 20 21 21 20 21 21 22 22 22 21 21 21 21 22 23 23
34 33 39 45 47 50 51 51 51 51 51 51 50 49 46 43 40 36 34 33 34 36 35 34 33 30 26 26 26 24 23 21 20 19 18 19 20 20 21 21 22 23 23 22 21 21 21 22 23 24 24 23
31 31 39 44 46 49 50 51 53 53 54 55 53 51 49 47 43 38 36 35 34 36 37 36 36 34 30 28 28 25 23 22 20 19 19 20 20 20 20 21 23 23 22 21 21 21 22 23 23 23 23 24
30 32 36 40 42 44 46 49 51 53 55 56 55 53 53 50 46 41 38 38 36 36 39 40 39 38 34 31 29 27 25 23 22 21 21 22 21 20 20 21 23 23 22 21 22 21 21 21 23 24 24 24
27 31 33 33 36 38 41 44 45 47 52 55 55 54 53 50 47 44 43 43 42 39 41 42 42 40 37 34 32 30 28 27 25 23 23 24 23 22 21 22 24 23 22 22 21 19 16 16 17 21 25 27
23 26 30 32 35 37 40 42 40 41 47 50 52 53 52 50 49 48 47 47 46 42 41 43 42 41 39 37 36 34 32 31 29 25 25 26 25 25 24 24 25 23 22 22 20 17 15 13 14 15 18 22
21 22 26 30 34 38 41 44 42 42 45 46 47 48 48 49 49 49 50 50 47 44 42 43 43 43 42 41 39 37 35 34 32 29 27 27 27 27 26 25 26 24 22 23 22 19 15 12 14 14 11 9
17 18 21 24 30 35 39 42 42 44 46 45 44 44 44 46 46 48 51 51 49 47 46 45 45 45 45 44 42 40 39 37 36 34 31 29 28 29 27 25 27 27 24 23 24 24 21 16 13 12 10 9
16 16 16 19 26 32 36 39 40 43 44 43 43 43 45 47 46 47 49 50 51 50 49 48 46 47 48 47 45 43 42 41 39 38 35 33 31 29 28 27 29 29 27 25 25 27 26 24 20 15 12 11
Wind_Direction
193 191 191 195 195 192 194 204 215 221 219 194 169 156 156 154 142 139 138 142 143 150 150 147 150 143 140 137 135 134 131 131 128 131 137 147 155 153 151 152 156 163 166 168 169 169 171 166 158 151 139 134
190 185 187 193 200 199 194 203 215 219 212 190 179 175 176 176 167 155 152 156 149 149 151 147 151 147 142 138 140 140 137 137 137 144 154 159 159 158 158 161 163 167 170 171 174 174 173 168 156 153 147 141
192 191 196 205 210 203 196 200 208 212 204 191 195 200 201 201 201 192 181 184 181 166 163 168 158 150 150 145 146 149 147 149 158 161 159 161 163 163 164 168 170 171 174 174 176 176 174 168 156 156 155 147
200 201 204 212 212 204 203 207 211 209 199 194 201 205 207 210 210 208 199 204 225 231 234 257 237 179 169 159 155 156 161 168 171 169 165 167 169 168 169 173 177 179 179 179 179 179 176 171 164 163 160 150
203 202 202 207 207 204 207 215 218 210 199 202 205 204 204 208 212 212 209 212 235 250 251 257 244 207 191 176 173 168 175 183 178 179 176 173 174 174 175 178 181 184 185 185 184 182 179 176 174 170 163 155
198 199 201 201 202 204 208 214 215 205 202 209 208 207 209 211 210 209 215 217 228 236 233 238 232 220 208 189 191 188 189 194 189 188 184 180 181 180 183 185 185 186 187 188 187 185 183 182 179 174 169 164
197 198 198 199 201 204 206 207 207 202 205 216 213 210 212 214 209 206 215 215 216 223 227 231 230 227 219 209 211 207 200 202 200 192 188 188 187 185 189 191 191 190 190 190 188 187 187 187 182 177 175 171
197 197 197 200 201 203 204 204 206 205 206 219 218 213 213 213 208 205 205 206 214 222 228 229 227 225 225 228 229 225 212 206 206 197 194 195 191 191 195 196 196 195 194 193 192 190 189 189 184 180 179 175
202 200 198 200 201 202 204 206 207 204 204 217 218 214 213 210 208 205 201 204 211 217 223 226 225 222 224 232 232 227 221 212 210 205 201 199 197 198 199 200 199 198 197 195 194 193 190 188 185 183 184 180
205 200 197 200 200 201 203 207 208 203 204 214 218 217 213 211 210 204 203 209 215 219 223 224 224 222 224 232 231 226 222 216 214 212 207 203 202 203 202 202 201 200 199 197 194 192 191 188 187 185 186 185
203 202 205 206 206 205 206 207 210 212 212 215 221 219 214 214 214 211 215 218 219 225 227 223 223 225 228 232 229 227 223 216 217 215 212 208 206 206 205 204 202 202 200 198 196 192 191 188 188 186 184 185
205 211 217 215 215 215 214 214 218 222 220 220 222 220 216 214 214 219 228 227 221 225 228 225 225 228 230 229 226 227 223 217 218 218 215 212 210 208 206 205 203 202 200 199 197 193 191 189 188 188 186 184
210 217 220 218 218 218 219 222 223 224 223 223 223 221 218 215 217 225 231 228 223 223 227 227 228 229 230 227 225 225 222 217 218 219 217 214 212 210 207 207 205 203 201 199 198 195 192 190 189 189 188 186
219 220 220 220 222 223 226 226 222 223 226 227 226 225 222 220 222 228 233 230 227 224 226 228 228 230 230 229 226 225 222 218 218 219 217 215 212 210 209 208 207 205 203 200 199 197 194 192 191 191 190 189
224 224 222 224 226 230 231 228 223 222 226 225 227 228 225 223 223 228 235 234 229 227 228 227 226 229 231 231 226 222 222 220 218 219 218 215 213 211 211 210 209 208 205 203 201 199 198 196 195 194 194 194
227 226 225 226 227 231 231 231 230 229 228 227 228 228 226 224 225 232 236 234 231 229 231 228 225 229 231 231 227 223 223 221 219 219 218 217 214 212 212 211 210 211 209 207 205 202 201 200 199 198 197 198
229 228 229 229 229 231 232 233 236 236 234 231 229 228 226 225 228 235 236 234 233 231 232 230 228 230 231 231 228 224 223 221 221 220 219 218 216 215 214 214 213 213 213 211 209 207 206 204 203 202 201 201
231 230 233 233 231 233 234 235 236 237 234 231 231 228 228 228 229 233 233 232 233 231 232 230 228 229 229 229 228 225 222 220 221 221 220 219 218 217 216 216 215 216 217 216 214 213 212 210 208 206 206 205
237 235 236 234 233 236 236 235 235 234 231 233 233 229 230 232 231 232 231 231 231 231 231 229 229 230 228 228 227 224 221 218 220 221 220 219 219 218 217 218 218 218 220 219 218 217 217 216 215 213 211 209
244 243 240 235 233 233 232 233 235 233 231 235 234 227 228 231 231 232 230 231 232 230 230 230 230 232 231 230 228 224 221 219 221 222 220 220 221 220 220 221 219 221 223 221 221 221 221 221 219 219 217 214
246 246 243 240 235 232 231 232 236 237 235 236 234 228 227 230 230 233 232 231 233 230 229 230 230 231 233 233 229 226 224 222 223 223 222 221 222 223 223 224 222 223 224 224 224 223 224 225 223 223 223 219
250 254 249 245 241 237 235 235 236 238 238 237 236 233 231 230 229 231 232 231 233 232 227 227 228 229 234 234 230 229 227 224 225 224 223 223 223 225 226 227 226 225 227 227 227 226 226 227 226 227 227 225
258 265 255 246 244 241 238 237 237 237 238 238 239 238 234 231 229 230 232 230 232 231 226 225 226 227 232 234 231 230 228 225 227 226 225 225 225 226 228 229 228 227 229 229 228 229 229 228 228 229 230 229
263 265 253 245 241 239 238 238 238 238 240 239 239 238 234 231 229 229 231 232 232 232 229 226 226 226 228 232 231 229 230 230 232 231 228 228 227 228 229 230 230 229 231 232 231 231 230 230 230 231 232 231
263 259 251 244 240 240 240 239 237 236 238 240 240 239 235 235 232 229 231 234 234 234 233 230 229 228 225 228 230 231 234 235 236 234 231 230 229 229 229 231 232 232 232 233 232 233 233 234 233 234 235 234
263 261 254 248 247 247 247 245 243 241 241 240 240 238 235 235 234 231 232 235 235 235 233 230 230 230 227 226 228 231 233 233 234 234 232 231 230 230 230 232 234 232 231 232 232 234 237 240 240 239 237 236
265 260 255 257 260 258 254 253 253 252 248 243 240 239 237 237 236 234 234 234 235 237 235 231 231 231 230 228 227 228 230 231 232 233 234 234 233 232 229 231 235 232 230 232 233 232 233 238 243 244 242 239
271 266 262 263 263 260 257 255 256 257 253 247 244 243 243 242 241 239 238 237 236 237 238 236 236 235 233 231 228 226 227 230 230 230 235 237 234 233 230 231 236 236 232 230 226 220 220 226 231 238 248 247
276 274 267 257 248 243 244 244 244 246 249 251 250 250 249 248 247 246 245 243 241 240 241 240 239 237 235 235 232 228 227 229 230 229 232 235 235 235 234 235 240 241 237 232 227 218 210 215 225 230 241 245
273 274 273 265 252 241 238 240 240 241 243 248 254 257 256 253 251 251 249 246 244 243 242 242 243 240 237 236 234 231 230 230 231 231 230 231 233 237 238 238 241 243 241 235 233 228 218 215 219 216 214 215
263 261 265 272 267 255 249 250 251 252 250 251 256 259 258 255 252 252 251 248 245 244 242 242 245 243 240 238 236 235 234 233 232 232 232 231 232 237 238 236 237 241 243 239 235 235 232 229 227 215 202 202